IZ0CGP Weather Reports


time (UTC)temp
F
wind
direction
speed
knots
gust
knots
rain 1hr
in
rain 24hr
in
rain mn
in
humidity
%
barometer
mb
20260507225458 62 359 0.9 6.1 0.00 0.10 0.00 69 1011.7
20260507224446 62 343 1.7 7.0 0.00 0.10 0.00 69 1011.7
20260507223439 62 325 5.2 8.7 0.00 0.11 0.00 69 1012.7
20260507222435 61 321 5.2 5.2 0.00 0.12 0.00 69 1011.7
20260507220429 61 318 0.9 2.6 0.00 0.12 0.00 70 1011.7
20260507215426 59 318 0.0 0.0 0.00 0.13 0.12 71 1012.7
20260507214422 60 318 0.0 0.0 0.00 0.13 0.12 73 1011.7
20260507213347 61 318 0.0 1.7 0.00 0.13 0.12 69 1011.7
20260507212344 61 318 0.0 5.2 0.00 0.15 0.12 69 1012.7
20260507211341 60 314 2.6 4.3 0.00 0.16 0.12 70 1012.7
20260507210351 60 313 1.7 4.3 0.00 0.17 0.12 71 1012.7
20260507205335 61 290 1.7 3.5 0.00 0.17 0.12 69 1011.7
20260507204330 62 343 0.9 1.7 0.00 0.17 0.12 70 1012.7
20260507202315 62 343 0.0 1.7 0.00 0.17 0.12 71 1012.7
20260507201312 62 344 0.0 0.0 0.00 0.17 0.12 71 1011.7
20260507200310 63 344 0.0 0.9 0.00 0.17 0.12 71 1011.7
20260507195255 63 344 0.0 0.0 0.00 0.17 0.12 73 1012.7
20260507194254 64 344 0.0 0.0 0.00 0.17 0.12 69 1012.7
20260507193250 64 342 0.0 1.7 0.00 0.18 0.12 69 1012.7
20260507192237 64 323 0.0 1.7 0.00 0.18 0.12 70 1012.7
20260507191233 65 322 1.7 2.6 0.00 0.18 0.12 69 1011.7
20260507190224 66 311 2.6 4.3 0.00 0.18 0.12 68 1011.7
20260507185214 67 317 2.6 6.1 0.00 0.18 0.12 65 1011.7
20260507184213 68 331 3.5 4.3 0.00 0.18 0.12 63 1011.7
20260507183210 68 324 2.6 4.3 0.00 0.18 0.12 62 1011.7
20260507182206 69 352 1.7 2.6 0.00 0.19 0.12 61 1011.7
20260507181203 70 357 0.9 1.7 0.00 0.20 0.12 60 1011.7
20260507180202 71 357 1.7 2.6 0.00 0.20 0.12 57 1011.7
20260507175157 71 358 0.0 1.7 0.00 0.20 0.12 56 1011.7
20260507174145 71 357 0.0 3.5 0.00 0.20 0.12 56 1011.7
20260507173140 72 354 1.7 4.3 0.00 0.20 0.12 54 1011.7
20260507172136 72 357 0.0 4.3 0.00 0.20 0.12 54 1011.7
20260507171134 72 9 0.0 4.3 0.00 0.20 0.12 54 1011.7
20260507170121 72 328 2.6 4.3 0.00 0.20 0.12 53 1011.7
20260507164103 73 12 0.9 6.1 0.00 0.20 0.12 54 1011.7
20260507162100 73 348 4.3 6.1 0.00 0.20 0.12 53 1011.7
20260507161044 73 339 2.6 7.8 0.00 0.20 0.12 52 1011.7
20260507160036 74 34 2.6 8.7 0.00 0.20 0.12 51 1011.7
20260507155032 74 2 1.7 7.0 0.00 0.20 0.12 50 1011.7
20260507154043 74 14 5.2 7.0 0.00 0.20 0.12 50 1011.7
20260507153032 73 58 0.0 7.0 0.00 0.20 0.12 50 1011.7
20260507152008 73 17 4.3 8.7 0.00 0.20 0.12 50 1012.7
20260507151004 74 14 3.5 9.6 0.00 0.20 0.12 49 1011.7
20260507150002 74 4 2.6 9.6 0.00 0.20 0.12 49 1011.7
20260507144959 75 30 1.7 5.2 0.00 0.20 0.12 47 1012.7
20260507143948 75 67 2.6 4.3 0.00 0.20 0.12 49 1011.7
20260507140924 73 115 0.9 3.5 0.00 0.20 0.12 50 1012.7
20260507134920 73 87 1.7 6.1 0.00 0.20 0.12 52 1012.7
20260507133914 74 53 1.7 5.2 0.00 0.20 0.12 52 1013.7
20260507132901 74 124 1.7 2.6 0.00 0.20 0.12 51 1013.7
20260507131858 74 66 0.0 2.6 0.00 0.20 0.12 51 1013.7
20260507130856 74 178 2.6 4.3 0.00 0.20 0.12 50 1013.7
20260507125850 74 145 1.7 2.6 0.00 0.20 0.12 52 1013.7
20260507124845 73 74 0.9 2.6 0.00 0.20 0.12 54 1013.7
20260507123832 73 120 1.7 3.5 0.00 0.20 0.12 57 1013.7
20260507122829 73 111 0.0 2.6 0.00 0.20 0.12 56 1013.7
20260507121826 73 69 1.7 1.7 0.00 0.20 0.12 58 1013.7
20260507120821 72 147 1.7 4.3 0.00 0.20 0.12 59 1013.7
20260507115820 71 153 0.0 1.7 0.00 0.20 0.12 60 1013.7
20260507114817 72 147 0.0 2.6 0.00 0.20 0.12 58 1013.7
20260507113759 72 127 0.0 4.3 0.00 0.20 0.12 59 1013.7
20260507112732 72 125 1.7 2.6 0.00 0.20 0.12 62 1013.7
20260507111722 70 56 0.0 1.7 0.00 0.20 0.12 62 1013.7
20260507105658 70 116 0.0 5.2 0.00 0.20 0.12 64 1013.7
20260507104641 70 28 0.0 4.3 0.00 0.20 0.12 62 1013.7
20260507103637 70 205 0.0 4.3 0.00 0.20 0.12 65 1014.7
20260507102632 71 115 0.0 5.2 0.00 0.20 0.12 65 1014.7
20260507101615 69 134 0.0 2.6 0.00 0.20 0.12 65 1014.7
20260507100610 69 48 1.7 2.6 0.00 0.20 0.12 67 1014.7
20260507095557 70 240 0.0 0.9 0.00 0.20 0.12 63 1014.7
20260507094552 67 260 0.0 0.9 0.00 0.20 0.12 66 1014.7
20260507093545 66 356 0.0 1.7 0.00 0.20 0.12 70 1014.7
20260507091526 65 334 1.7 3.5 0.00 0.20 0.12 71 1014.7
20260507090510 66 297 0.0 2.6 0.00 0.20 0.12 71 1014.7
20260507085506 67 142 0.0 1.7 0.00 0.20 0.12 67 1014.7
20260507084459 67 279 0.0 0.9 0.00 0.20 0.12 71 1014.7
20260507081422 68 113 0.0 0.0 0.00 0.20 0.12 68 1014.7
20260507080414 67 113 0.0 1.7 0.00 0.20 0.12 68 1014.7
20260507075409 66 165 1.7 1.7 0.00 0.20 0.12 70 1014.7
20260507074352 64 119 0.0 0.0 0.00 0.20 0.12 74 1014.7
20260507073338 63 13 0.0 0.0 0.00 0.20 0.12 77 1014.7
20260507071326 61 12 0.0 0.0 0.00 0.20 0.12 82 1014.7
20260507065235 60 12 0.0 0.0 0.00 0.20 0.12 83 1014.7
20260507062157 60 110 0.0 0.0 0.00 0.20 0.12 86 1014.7
20260507060124 58 129 0.0 0.0 0.00 0.20 0.12 91 1014.7
20260507055111 57 129 0.0 0.0 0.00 0.20 0.12 91 1014.7
20260507054053 57 107 0.0 0.0 0.00 0.20 0.12 92 1014.7
20260507053049 56 107 0.0 0.0 0.00 0.20 0.12 92 1014.7
20260507052039 56 107 0.0 0.0 0.00 0.20 0.12 92 1014.7
20260507051029 56 107 0.0 0.0 0.00 0.20 0.12 92 1014.7
20260507044940 56 107 0.0 0.0 0.00 0.20 0.12 92 1014.7
20260507043926 56 107 0.0 0.0 0.00 0.20 0.12 92 1014.7
20260507042910 56 107 0.0 0.0 0.00 0.20 0.12 91 1014.7
20260507041843 56 107 0.0 0.0 0.00 0.20 0.12 91 1014.7
20260507040838 56 107 0.0 0.0 0.00 0.20 0.12 91 1014.7
20260507035832 56 107 0.0 0.0 0.00 0.20 0.12 91 1014.7
20260507034821 56 107 0.0 0.0 0.00 0.20 0.12 91 1014.7
20260507033805 56 107 0.0 0.0 0.00 0.20 0.12 91 1014.7
20260507031725 56 107 0.0 0.0 0.00 0.20 0.12 91 1014.7
20260507030721 56 107 0.0 0.0 0.00 0.20 0.12 91 1014.7
20260507025657 56 107 0.0 0.0 0.00 0.20 0.12 91 1013.7
20260507024642 56 138 0.0 0.0 0.00 0.20 0.12 91 1013.7
20260507023626 56 138 0.0 0.0 0.01 0.20 0.12 91 1014.7
20260507021545 56 138 0.0 0.0 0.01 0.20 0.12 91 1014.7
20260507020540 56 138 0.0 0.0 0.01 0.20 0.12 91 1013.7
20260507015524 56 138 0.0 0.0 0.01 0.20 0.12 90 1013.7
20260507014511 56 150 0.0 0.0 0.02 0.20 0.12 90 1013.7
20260507012440 56 143 0.0 0.0 0.01 0.19 0.11 90 1013.7
20260507010421 56 144 0.0 4.3 0.04 0.19 0.11 90 1013.7
20260507005407 56 164 3.5 7.0 0.06 0.19 0.11 90 1013.7
20260507004401 56 140 4.3 7.8 0.06 0.18 0.10 91 1013.7
20260507003356 56 138 1.7 8.7 0.07 0.18 0.10 91 1013.7
20260507002351 56 195 1.7 5.2 0.07 0.18 0.10 91 1013.7
20260507001347 56 165 0.0 1.7 0.07 0.17 0.09 91 1014.7
20260507000343 57 145 0.9 7.0 0.04 0.14 0.06 91 1014.7
20260506235339 57 186 1.7 2.6 0.03 0.13 0.05 91 1014.7
20260506234322 57 140 0.0 0.0 0.02 0.12 0.04 91 1014.7
20260506233320 57 102 0.0 0.0 0.02 0.11 0.03 90 1014.7
20260506232301 57 101 0.0 0.0 0.03 0.11 0.03 90 1014.7
20260506231240 57 101 0.0 0.0 0.02 0.10 0.02 90 1014.7